Tracking 19706 objects as of 16-Jun-2019
HD Live streaming from Space Station
objects crossing your sky now

STARLINK OBJ P

Track STARLINK OBJ P now!
10-day predictions


NORAD ID: 44248
Int'l Code: 2019-029P
Perigee: 542.8 km
Apogee: 546.5 km
Inclination: 53.0 °
Period: 95.4 minutes
Semi major axis: 6915 km
RCS: Unknown
Launch date: May 24, 2019
Source: United States (US)
Launch site: AIR FORCE EASTERN TEST RANGE (AFETR)
aabbcc
Your satellite tracking list
Your tracking list is empty




NASA's NSSDC Master Catalog

Two Line Element Set (TLE):
1 44248U 19029P   19166.33767345 -.00481585  00000-0 -31360-1 0  9991
2 44248  52.9985  71.6987 0002705  62.1160 298.0103 15.09574646  3452
Source of the keplerian elements: AFSPC